Location: *
(46.0770°N, 1.6444°E)
Time: 13:58:39
(UTC+00:00)

ARGOS - Pass Details

Date: 16 September 2019
Orbit: 821 x 834 km, 98.5° (Epoch: 19 October)

Event Time Altitude Azimuth Distance (km) Brightness Sun altitude
Exits shadow 19:49:52 20° 162° (SSE) 1,809 4.5 -18.6°
Maximum altitude 19:53:40 85° 76° (ENE) 833 3.1 -19.2°
Drops below altitude 10° 19:59:05 10° 347° (NNW) 2,438 6.1 -20.1°
Sets 20:01:26 0° 347° (NNW) 3,378 6.9 -20.4°
